Lapeer, MI

12:36 AM EST on January 21, 2018 (GMT -0500)
Lapeer

Weather History for KD95 - October, 2012

Change the Weather History Date:

Thursday, October 4, 2012

  Actual Average (KFNT) Record (KFNT)
Temperature  
Mean Temperature 65 °F -  
Max Temperature 76 °F 64 °F 88 °F (1951)
Min Temperature 54 °F 43 °F 27 °F (1996)
Growing Degree Days 15 (Base 50)    
Moisture  
Dew Point 54 °F    
Average Humidity 76    
Maximum Humidity 100    
Minimum Humidity 36    
Precipitation  
Precipitation 0.03 in - - ()
Sea Level Pressure  
Sea Level Pressure 30.03 in    
Wind  
Wind Speed 6 mph ()    
Max Wind Speed 16 mph    
Max Gust Speed 24 mph    
Visibility 10.0 miles    
Events Rain    
Averages and records for this station are not official NWS values.
T = Trace of Precipitation, MM = Missing Value Source: Averaged Metar Reports

Daily Weather History Graph

Daily Weather History Graph

Search for Another Location

Airport or City:

Trip Planner

Search our weather history database for the weather conditions in past years. The results will help you decide how hot, cold, wet, or windy it might be!

Date:

Astronomy

Oct. 04, 2012 Rise Set
Actual Time 7:34 AM EDT 7:08 PM EDT
Civil Twilight 7:06 AM EDT 7:36 PM EDT
Nautical Twilight 6:33 AM EDT 8:09 PM EDT
Astronomical Twilight 5:59 AM EDT 8:42 PM EDT
Moon 9:35 PM EDT (10/4) 11:57 AM EDT (10/4)
Length of Visible Light 12h 30m
Length of Day
11h 33m
Waning Gibbous, 82% of the Moon is Illuminated
Oct 4
Waning Gibbous
Oct 8
Last Quarter
Oct 15
New
Oct 21
First Quarter
Oct 29
Full

Hourly Weather History & Observations

Time (EDT) Temp. Dew Point Humidity Pressure Visibility Wind Dir Wind Speed Gust Speed Precip Events Conditions
12:13 AM 58.1 °F 58.1 °F 100% 30.06 in 10.0 mi Calm Calm - N/A   Overcast
12:34 AM 58.1 °F 58.1 °F 100% 30.06 in 10.0 mi SSE 3.5 mph - N/A   Overcast
12:53 AM 58.3 °F 58.3 °F 100% 30.05 in 10.0 mi SE 4.6 mph - N/A   Overcast
1:13 AM 57.6 °F 57.6 °F 100% 30.05 in 10.0 mi South 3.5 mph - N/A   Mostly Cloudy
1:34 AM 57.2 °F 57.2 °F 100% 30.05 in 10.0 mi SSE 4.6 mph - N/A   Scattered Clouds
1:53 AM 57.7 °F 57.7 °F 100% 30.06 in 10.0 mi South 4.6 mph - N/A   Mostly Cloudy
2:14 AM 58.6 °F 58.6 °F 100% 30.06 in 10.0 mi South 5.8 mph - N/A   Overcast
2:33 AM 59.2 °F 58.6 °F 98% 30.06 in 10.0 mi South 4.6 mph - N/A   Overcast
2:53 AM 59.7 °F 58.5 °F 96% 30.05 in 10.0 mi South 6.9 mph - N/A   Overcast
3:14 AM 59.4 °F 58.3 °F 96% 30.05 in 10.0 mi South 6.9 mph - N/A   Overcast
3:34 AM 57.9 °F 57.6 °F 99% 30.05 in 10.0 mi South 4.6 mph - N/A   Overcast
3:53 AM 56.8 °F 56.8 °F 100% 30.04 in 10.0 mi South 3.5 mph - N/A   Overcast
4:14 AM 57.2 °F 57.2 °F 100% 30.04 in 10.0 mi South 3.5 mph - N/A   Overcast
4:33 AM 56.8 °F 56.8 °F 100% 30.04 in 10.0 mi South 5.8 mph - N/A   Overcast
4:53 AM 56.3 °F 56.3 °F 100% 30.03 in 10.0 mi South 5.8 mph - N/A   Mostly Cloudy
5:14 AM 54.9 °F 54.9 °F 100% 30.04 in 10.0 mi South 5.8 mph - N/A   Mostly Cloudy
5:33 AM 54.9 °F 54.9 °F 100% 30.04 in 10.0 mi South 5.8 mph - N/A   Scattered Clouds
5:53 AM 54.0 °F 54.0 °F 100% 30.05 in 10.0 mi South 5.8 mph - N/A   Scattered Clouds
6:14 AM 54.5 °F 54.5 °F 100% 30.04 in 10.0 mi South 6.9 mph - N/A   Clear
6:33 AM 54.7 °F 54.7 °F 100% 30.04 in 10.0 mi SSW 6.9 mph - N/A   Clear
6:53 AM 55.8 °F 55.8 °F 100% 30.05 in 10.0 mi SSW 5.8 mph - N/A   Mostly Cloudy
7:14 AM 55.6 °F 55.6 °F 100% 30.04 in 10.0 mi SSW 4.6 mph - N/A   Mostly Cloudy
7:33 AM 54.1 °F 54.1 °F 100% 30.05 in 10.0 mi SSW 4.6 mph - N/A   Scattered Clouds
7:53 AM 54.5 °F 54.5 °F 100% 30.05 in 10.0 mi SSW 5.8 mph - N/A   Clear
8:14 AM 55.0 °F 55.0 °F 100% 30.05 in 10.0 mi SSW 5.8 mph - N/A   Clear
8:38 AM 57.2 °F 56.5 °F 97% 30.06 in 10.0 mi SSW 5.8 mph - N/A   Clear
8:53 AM 58.1 °F 56.7 °F 95% 30.06 in 10.0 mi SSW 5.8 mph - N/A   Clear
9:14 AM 59.9 °F 57.2 °F 91% 30.06 in 10.0 mi SW 5.8 mph - N/A   Clear
9:33 AM 61.0 °F 57.2 °F 87% 30.05 in 10.0 mi SW 6.9 mph - N/A   Clear
9:53 AM 61.7 °F 57.6 °F 86% 30.05 in 10.0 mi SW 6.9 mph - N/A   Clear
10:14 AM 62.8 °F 58.6 °F 86% 30.05 in 10.0 mi SW 8.1 mph - N/A   Mostly Cloudy
10:33 AM 62.8 °F 58.3 °F 85% 30.06 in 10.0 mi SW 9.2 mph - N/A   Overcast
10:53 AM 64.8 °F 56.3 °F 74% 30.05 in 10.0 mi WSW 11.5 mph - N/A   Mostly Cloudy
11:14 AM 66.0 °F 55.2 °F 68% 30.06 in 10.0 mi WSW 11.5 mph 17.3 mph N/A   Scattered Clouds
11:33 AM 65.3 °F 55.4 °F 70% 30.06 in 10.0 mi SW 9.2 mph 16.1 mph N/A   Mostly Cloudy
11:53 AM 64.8 °F 54.3 °F 69% 30.06 in 10.0 mi WSW 10.4 mph 18.4 mph N/A   Overcast
12:14 PM 67.6 °F 54.7 °F 63% 30.06 in 10.0 mi WSW 12.7 mph - N/A   Overcast
12:33 PM 66.4 °F 56.1 °F 69% 30.06 in 10.0 mi SSW 10.4 mph 18.4 mph N/A   Overcast
12:53 PM 65.8 °F 55.2 °F 69% 30.06 in 10.0 mi WSW 12.7 mph 18.4 mph N/A   Overcast
1:14 PM 66.4 °F 54.3 °F 65% 30.06 in 10.0 mi WSW 12.7 mph 18.4 mph N/A   Overcast
1:33 PM 68.9 °F 54.1 °F 59% 30.05 in 10.0 mi WSW 13.8 mph 18.4 mph N/A   Mostly Cloudy
1:53 PM 70.3 °F 53.6 °F 55% 30.04 in 10.0 mi SW 10.4 mph 20.7 mph N/A   Scattered Clouds
2:33 PM 73.8 °F 53.4 °F 49% 30.02 in 10.0 mi SW 10.4 mph - N/A   Clear
2:54 PM 74.1 °F 51.8 °F 46% 30.02 in 10.0 mi SW 15.0 mph 19.6 mph N/A   Scattered Clouds
3:13 PM 74.3 °F 51.3 °F 44% 30.02 in 10.0 mi WSW 9.2 mph 21.9 mph N/A   Mostly Cloudy
3:33 PM 75.2 °F 50.2 °F 41% 30.01 in 10.0 mi WSW 9.2 mph 21.9 mph N/A   Mostly Cloudy
3:54 PM 74.5 °F 48.7 °F 40% 30.01 in 10.0 mi WSW 15.0 mph 24.2 mph N/A   Scattered Clouds
4:13 PM 75.7 °F 48.7 °F 38% 30.00 in 10.0 mi SW 10.4 mph 17.3 mph N/A   Scattered Clouds
4:33 PM 76.6 °F 47.8 °F 36% 30.00 in 10.0 mi SW 12.7 mph 17.3 mph N/A   Scattered Clouds
4:54 PM 76.3 °F 47.1 °F 36% 30.00 in 10.0 mi SW 15.0 mph 21.9 mph N/A   Clear
5:13 PM 76.1 °F 47.1 °F 36% 30.00 in 10.0 mi SW 16.1 mph 23.0 mph N/A   Scattered Clouds
5:33 PM 75.2 °F 47.3 °F 37% 30.00 in 10.0 mi SW 13.8 mph 21.9 mph N/A   Scattered Clouds
6:13 PM 73.8 °F 50.0 °F 43% 30.01 in 10.0 mi SSW 10.4 mph 17.3 mph N/A   Scattered Clouds
6:54 PM 70.3 °F 50.4 °F 49% 30.00 in 10.0 mi SSW 6.9 mph - N/A   Scattered Clouds
7:13 PM 67.1 °F 51.3 °F 57% 30.00 in 10.0 mi South 5.8 mph - N/A   Clear
7:33 PM 66.2 °F 51.4 °F 59% 30.00 in 10.0 mi South 5.8 mph - N/A   Scattered Clouds
7:54 PM 64.6 °F 51.4 °F 62% 29.99 in 10.0 mi South 4.6 mph - N/A   Scattered Clouds
8:13 PM 64.6 °F 51.6 °F 63% 29.99 in 10.0 mi South 4.6 mph - N/A   Clear
8:33 PM 65.8 °F 51.8 °F 60% 29.99 in 10.0 mi SSE 3.5 mph - N/A   Mostly Cloudy
8:54 PM 65.5 °F 51.4 °F 60% 29.99 in 10.0 mi SSE 4.6 mph - N/A   Mostly Cloudy
9:13 PM 65.7 °F 52.0 °F 61% 29.99 in 10.0 mi South 3.5 mph - N/A   Overcast
9:33 PM 66.2 °F 52.5 °F 61% 29.98 in 10.0 mi South 5.8 mph - N/A   Overcast
9:54 PM 66.4 °F 53.2 °F 63% 29.98 in 10.0 mi South 6.9 mph - N/A   Overcast
10:13 PM 66.4 °F 52.7 °F 61% 29.98 in 10.0 mi South 5.8 mph - N/A   Overcast
10:33 PM 67.1 °F 52.2 °F 59% 29.97 in 10.0 mi South 5.8 mph - N/A   Overcast
10:54 PM 68.4 °F 51.8 °F 55% 29.98 in 10.0 mi SW 5.8 mph - N/A   Overcast
11:13 PM 68.5 °F 51.8 °F 55% 30.00 in 10.0 mi WSW 9.2 mph - N/A   Overcast
11:33 PM 65.8 °F 56.1 °F 71% 30.00 in 10.0 mi West 13.8 mph 17.3 mph N/A Rain Light Rain
11:53 PM 62.4 °F 62.1 °F 99% 30.00 in 10.0 mi West 5.8 mph - 0.03 in Rain Light Rain